Location: Ferintosh
(52.7647°N, 112.9692°W)
Time: 15:06:37
(UTC+00:00)

Tiros 1 despin weight - Pass Details

Date: 21 May 2024
Orbit: 577 x 621 km, 48.2° (Epoch: 19 June)

Event Time Altitude Azimuth Distance (km) Brightness Sun altitude
Exits shadow 09:55:05 13° 234° (SW) 1,707 ? -10.3°
Maximum altitude 09:58:37 40° 167° (SSE) 864 ? -10.0°
Drops below altitude 10° 10:02:39 10° 98° (E) 1,888 ? -9.6°
Sets 10:05:00 0° 91° (E) 2,787 ? -9.4°
